Tracking 31027 objects as of 19-Jul-2025
HD Live streaming from Space Station
objects crossing your sky now

DMSP 5D-2 F13 DEB

Track DMSP 5D-2 F13 DEB now!
10-day predictions


NORAD ID: 40398
Int'l Code: 1995-015K
Perigee: 836.7 km
Apogee: 846.9 km
Inclination: 98.8 °
Period: 101.6 minutes
Semi major axis: 7212 km
RCS: Unknown
Launch date: March 24, 1995
Source: United States (US)
Launch site: AIR FORCE WESTERN TEST RANGE (AFWTR)

Note: This is SATELLITE DEBRIS
Your satellite tracking list
NOAA 19
NOAA 15
NOAA 18
Track 3 satellite(s)




NASA's NSSDC Master Catalog

Two Line Element Set (TLE):
1 40398U 95015K   25199.51227346  .00000138  00000-0  90056-4 0  9996
2 40398  98.8081 211.8969 0007047  26.8401 333.3137 14.17260256537276
Source of the keplerian elements: AFSPC